This is the latest recevied weather packets stored in our database for station/object KA1JKB. If no packets are shown the sender has not sent any weather packets the latest 10 day(s).
| Time | Temp. | Humidity | Pressure | Rain* | Wind** | Luminosity | Snow |
|---|---|---|---|---|---|---|---|
| 1788097667 | 18.33° C | 99% | 1018.2 hPa | 1.78 mm | - | 22 W/m² | - |
| 1788097367 | 18.89° C | 99% | 1017.9 hPa | 4.83 mm | - | 17 W/m² | - |
| 1788097063 | 18.89° C | 99% | 1018.3 hPa | 3.05 mm | - | 14 W/m² | - |
| 1788096758 | 18.33° C | 99% | 1018.3 hPa | 1.27 mm | - | 13 W/m² | - |
| 1788096454 | 18.33° C | 99% | 1018.1 hPa | 1.78 mm | - | 12 W/m² | - |
| 1788096149 | 18.33° C | 99% | 1018.1 hPa | 1.78 mm | - | 11 W/m² | - |
| 1788095848 | 18.33° C | 99% | 1018.2 hPa | 3.05 mm | - | 12 W/m² | - |
| 1788095543 | 18.33° C | 99% | 1018.4 hPa | 1.27 mm | - | 10 W/m² | - |
| 1788095238 | 18.33° C | 99% | 1018.1 hPa | 1.78 mm | - | 9 W/m² | - |
| 1788094938 | 18.33° C | 99% | 1018.1 hPa | 3.05 mm | - | 10 W/m² | - |
| 1788094638 | 18.33° C | 99% | 1018.1 hPa | 3.05 mm | - | 9 W/m² | - |
| 1788094333 | 18.33° C | 99% | 1017.9 hPa | 1.78 mm | - | 9 W/m² | - |
| 1788094030 | 18.33° C | 99% | 1017.7 hPa | 1.27 mm | - | 9 W/m² | - |
| 1788093726 | 18.33° C | 99% | 1017.5 hPa | 1.78 mm | - | 7 W/m² | - |
| 1788093423 | 18.33° C | 99% | 1017.4 hPa | 1.27 mm | - | 6 W/m² | - |
| 1788093119 | 18.33° C | 99% | 1017.5 hPa | 0 mm | - | 6 W/m² | - |
| 1788092816 | 18.33° C | 99% | 1017.7 hPa | 1.78 mm | - | 6 W/m² | - |
| 1788092511 | 18.33° C | 99% | 1017.6 hPa | 1.78 mm | - | 4 W/m² | - |
| 1788092207 | 18.33° C | 99% | 1017.5 hPa | 3.05 mm | - | 3 W/m² | - |
| 1788091906 | 18.33° C | 99% | 1017.2 hPa | 3.05 mm | - | 3 W/m² | - |
| 1788091601 | 18.33° C | 99% | 1017.1 hPa | 1.27 mm | - | 1 W/m² | - |
| 1788091297 | 18.33° C | 99% | 1016.9 hPa | 1.27 mm | - | 2 W/m² | - |
| 1788090993 | 18.33° C | 99% | 1016.7 hPa | 0 mm | - | 2 W/m² | - |
| 1788090689 | 18.33° C | 99% | 1016.5 hPa | 0 mm | - | 2 W/m² | - |
| 1788090385 | 18.33° C | 99% | 1016.5 hPa | 0 mm | - | 3 W/m² | - |
* Rain latest hour (hover to see other rain measurements)
** Current wind speed in m/s (hover to see current wind gust speed)